www.pogodaiklimat.ru

Погода и климат >> Архив погоды >> Россия >> Хабаровский край >> Уега


ПОГОДА в Уеге

  • Прогноз погоды в Уеге
  • Монитор погоды в Уеге

АРХИВ ПОГОДЫ в Уеге

Время (UTC), дата Ветер
(напр.,м/с)
 
Видим.   Явления Облачность Т
(С)
Тd
(С)
f
(%)
Тe
(С)
Тes
(С)
Комфортность P
(гПа)
Po
(гПа)
Тmin
(С)
Tmax
(С)
R
(мм)
R24
(мм)
S
(см)
15 9.07 СЗ 1 50 км 3/0
[Ci fib]
+4.6 +4.2 97 +3 +3 1016.2 968.0
18 9.07 штиль 0 50 км 8/5 1000 м
[Sc Ci fib]
+2.8 +2.7 99 +2 +2 1017.0 968.4
21 9.07 ЮВ 2 50 км 9/4 1000 м
[Sc Ac lent Ci fib]
+11.0 +7.3 78 +10 +11 1015.2 968.1 +2.2
00 10.07 Ю 1 50 км 9/5 1000 м
[Sc Ac lent Ci fib]
+14.5 +6.3 58 +15 +19 1013.6 967.2
03 10.07 Ю 2 50 км 8/0
[Ac trans Ci fib]
+20.2 +6.9 42 +22 +31 комфорт 1011.1 965.7
06 10.07 Ю 3 50 км 8/1 1000 м
[Cu hum Ci fib]
+22.0 +9.0 43 +23 +28 комфорт 1009.4 964.3
09 10.07 Ю 3 50 км 8/1 1000 м
[Cu hum Ci fib]
+20.0 +7.2 43 +21 +22 комфорт 1009.9 964.5 +22.2
12 10.07 З 1 50 км 5/3 1000 м
[Sc Ci fib]
+13.6 +9.5 76 +14 +14 1012.0 965.5
15 10.07 ЮЗ 1 50 км 6/6 600 м
[Cb cap]
+5.0 +4.8 99 +3 +3 1014.2 966.2
18 10.07 штиль 0 50 км 8/5 600 м
[Cb cap Ci fib]
+3.1 +3.0 99 +2 +2 1014.6 966.2
21 10.07 штиль 0 50 км {туман} 8/5 600 м
[Cb cap Ci fib]
+9.1 +8.6 97 +8 +10 1013.8 966.5 +2.9
00 11.07 Ю 1 50 км {туман} 6/3 1000 м
[Sc Ci fib]
+16.6 +9.5 63 +18 +25 1011.4 965.4
03 11.07 Ю 2 50 км 5/0
[Ci fib]
+23.5 +7.3 35 +24 +36 комфорт 1008.6 963.8
06 11.07 Ю 2 50 км 3/0
[Ci fib]
+25.9 +5.1 26 +25 +33 комфорт 1007.2 962.8
09 11.07 Ю 1 50 км 3/0
[Ci fib]
+24.8 +8.3 35 +25 +27 комфорт 1006.6 962.1 +25.9
12 11.07 ЮВ 1 50 км 4/3 1000 м
[Sc Ci fib]
+16.7 +9.9 64 +18 +18 1009.3 963.5
15 11.07 СЗ 1 50 км 4/3 1000 м
[Sc Ci fib]
+8.1 +7.3 95 +7 +7 1011.5 964.2
18 11.07 З 1 50 км 8/8 1000 м
[Sc]
+8.5 +7.8 95 +8 +8 1011.2 964.0
21 11.07 штиль 0 50 км 9/9 600 м
[Cb cap]
+14.8 +11.3 80 +15 +15 1010.5 964.3 +7.8
00 12.07 Ю 1 50 км 6/6 600 м
[Cb cap]
+20.8 +11.1 54 +24 +29 комфорт 1008.9 963.7
03 12.07 ЮВ 1 50 км 9/9 600 м
[Cb cap]
+24.3 +8.4 36 +25 +26 комфорт 1007.4 962.8
06 12.07 СВ 1 50 км 8/8 600 м
[Cb cap]
+26.4 +9.0 33 +27 +29 жарко 1005.9 961.6
09 12.07 ЮВ 2 50 км 8/8 600 м
[Cb cap]
+24.3 +10.4 41 +25 +26 комфорт 1006.7 962.1 +27.2
12 12.07 С 1 50 км 9/9 600 м
[Cb cap]
+19.7 +11.3 58 +22 +22 комфорт 1010.0 964.6
15 12.07 С 1 50 км 8/8 600 м
[Cb cap]
+15.4 +13.0 86 +16 +16 1011.0 964.9
18 12.07 З 1 50 км 9/9 600 м
[Cb cap]
+14.4 +13.1 92 +15 +15 1011.5 965.3
21 12.07 С 2 50 км 8/3 1000 м
[Sc Ci fib]
+17.1 +14.0 82 +17 +19 1011.3 965.5 +14.1
00 13.07 С 2 50 км 8/4 1000 м
[Sc Ci fib]
+21.0 +13.9 64 +25 +30 комфорт 1010.3 965.1
03 13.07 Ю 2 50 км 8/3 600 м
[Cb calv Ci fib]
+26.1 +10.2 37 +27 +35 жарко 1008.1 963.7
06 13.07 Ю 2 50 км 6/3 600 м
[Cb calv Ci fib]
+26.9 +10.1 35 +27 +33 жарко 1006.6 962.4
09 13.07 Ю 1 50 км 6/3 600 м
[Cb calv Ci fib]
+26.0 +8.6 33 +26 +27 жарко 1006.7 962.4 +27.5
12 13.07 Ю 1 50 км 5/3 1000 м
[Sc diur, vesp Ci fib]
+18.5 +11.1 62 +20 +20 1009.3 963.8
15 13.07 СЗ 2 50 км 4/1 1000 м
[Sc Ci fib]
+6.8 +6.0 95 +4 +4 1012.7 965.1
18 13.07 СЗ 1 50 км 8/4 1000 м
[Sc Ci fib]
+7.4 +7.1 98 +6 +6 1013.1 965.6
21 13.07 штиль 0 50 км 8/3 1000 м
[Sc Ci fib]
+15.3 +10.1 71 +15 +18 1012.1 965.9 +6.7
00 14.07 ЮВ 2 50 км 4/0
[Ci fib]
+19.9 +12.5 62 +22 +32 комфорт 1011.0 965.6
03 14.07 Ю 3 50 км 8/0
[Ci fib]
+23.7 +10.3 43 +25 +34 комфорт 1009.1 964.3
06 14.07 ЮВ 3 50 км 8/0
[Ci fib]
+23.4 +8.2 38 +25 +30 комфорт 1008.3 963.5
09 14.07 Ю 3 50 км 8/0
[Ci fib]
+21.4 +11.4 53 +23 +24 комфорт 1008.3 963.2 +24.5
12 14.07 Ю 1 50 км 8/0
[Ci fib]
+15.8 +11.5 76 +17 +17 1010.4 964.4
15 14.07 Ю 2 50 км 8/0
[Ci fib]
+12.3 +10.2 87 +11 +11 1011.6 965.0
18 14.07 ЮВ 2 50 км 8/5 1000 м
[Sc Ci fib]
+10.0 +9.8 99 +8 +8 1012.2 965.2
21 14.07 ЮВ 1 50 км 10/10 1000 м
[Sc]
+9.9 +9.7 99 +9 +9 1012.3 965.2 +9.6
00 15.07 Ю 1 50 км 10/10 1000 м
[Sc]
+11.5 +9.5 88 +11 +11 1011.8 965.0
03 15.07 Ю 2 50 км 6/3 1000 м
[Sc Ci fib]
+17.8 +10.6 63 +18 +27 1008.4 962.8
06 15.07 ЮВ 3 50 км 1/1 600 м
[Cb calv]
+21.5 +12.1 55 +24 +30 комфорт 1006.1 961.1
09 15.07 Ю 2 50 км 8/3 600 м
[Cb cap Ci fib]
+18.5 +12.2 67 +20 +20 1006.3 960.9 +21.5
12 15.07 Ю 2 50 км 8/3 1000 м
[Sc Ci fib]
+12.9 +11.3 90 +12 +12 1008.6 962.3
15 15.07 Ю 1 50 км 10/10 300 м
[St]
+12.3 +10.9 91 +12 +12 1009.0 962.5
18 15.07 З 1 50 км 10/10 300 м
[St]
+11.5 +10.8 95 +11 +11 1008.6 962.0
21 15.07 СЗ 1 50 км 10/10 300 м
[St]
+12.3 +10.8 91 +12 +12 1008.1 961.6 +11.4
00 16.07 штиль 0 50 км 9/9 300 м
[St]
+15.2 +11.8 80 +15 +16 1007.0 961.1
03 16.07 Ю 2 50 км 9/4 600 м
[Cb cap Ac trans Ci fib]
+19.9 +13.5 67 +22 +27 комфорт 1004.9 959.8
06 16.07 Ю 1 50 км 9/6 600 м
[Cb cap Ci fib]
+23.2 +13.9 56 +27 +30 душно 1002.5 958.0

 

Местоположение метеостанции Уега (Хабаровский край, Россия): широта 60.72 долгота 142.70 высота над уровнем моря 398 м.

В архиве по умолчанию представлена погода в Уеге за последнюю неделю. Архивные данные за месяц целиком и за предыдущие месяцы, начиная с января 2011 года, Вы можете получить, выбрав интересующий диапазон дат из раскрывающегося списка и нажав кнопку "Ввод!".


*Определитесь, кто Вы:
робот инопланетянин человек

Внимание! Время в таблицах - всемирное. Для получения местного времени необходимо прибавить поправку, которая равна 10 ч.

Смотрите также архив погоды в соседних городах и на ближайших метеорологических станциях:

Погода в Арке (Хабаровский край, Россия) (74 км)
Погода в Охотске (Хабаровский край, Россия) (154 км)
Погода в Улье (Хабаровский край, Россия) (219 км)
Погода в Оймяконе (Якутия, Россия) (282 км)
Погода в Колымской (Магаданская область, Россия) (290 км)
Погода в Агаякане (Якутия, Россия) (295 км)
Погода в Югоренке (Якутия, Россия) (301 км)
Погода в Восточной (Якутия, Россия) (323 км)
Погода в Талоне (Магаданская область, Россия) (343 км)
Погода в Сусумане (Магаданская область, Россия) (365 км)

Пояснения к столбцам:

Ветер - указаны скорость ветра в м/с - средняя за 10 мин, порывы в срок и между сроками (в фигурных скобках) и направление, откуда дует ветер: С - северный, СВ - северо-восточный, В - восточный, ЮВ - юго-восточный, Ю - южный, ЮЗ - юго-западный, З - западный, СЗ - северо-западный.
Видимость - горизонтальная дальность видимости в метрах или километрах. При видимости от 1 до 10 км при отсутствии осадков обычно наблюдается дымка, при ухудшении видимости до 1 км и менее - туман. В сухую погоду видимость может ухудшаться дымом, пылью или мглою.
Явления - указаны атмосферные явления, наблюдавшиеся в срок или в последний час перед сроком; фигурными скобками обозначены явления, наблюдавшиеся между сроками (за 1-3 часа до срока); квадратными скобками обозначены град или гололедные отложения с указанием их диаметра в мм.
Облачность - указаны через наклонную черту общая и нижняя облачность в баллах и высота нижней границы облаков в метрах; квадратными скобками обозначены формы облаков: Ci - перистые, Cs - перисто-слоистые, Cc - перисто-кучевые, Ac - высококучевые, As - высокослоистые, Sc - слоисто-кучевые, Ns - слоисто-дождевые, Cu - кучевые, Cb - кучево-дождевые. Подробнее классификацию облаков см. в Атласе облаков (PDF).
T - Температура воздуха - температура, измеренная на высоте 2 м над землей.
Td - Температура точки росы - температура, при понижении до которой содержащийся в воздухе водяной пар достигнет насыщения.
f - Относительная влажность воздуха - влажноcть воздуха, измеренная на высоте 2 м над землей.
Te - Эффективная температура - температура, которую ощущает одетый по сезону человек в тени. Характеристика душности погоды. При расчете учитывается влияние влажности воздуха и скорости ветра на теплоощущения человека.
Tes - Эффективная температура на солнце - температура, которую ощущает человек, с поправкой на солнечный нагрев. Характеристика знойности погоды. Зависит от высоты солнца над горизонтом, облачности и скорости ветра. Ночью, в пасмурную погоду, а также при ветре 12 м/с и более поправка равна нулю.
P - Атмосферное давление - приведенное к уровню моря атмосферное давление.
Po - Атмосферное давление - измеренное на уровне метеостанции атмосферное давление.
Tmin - Минимальная температура - минимум температуры воздуха на высоте 2 м над землей.
Tmax - Максимальная температура - максимум температуры воздуха на высоте 2 м над землей.
R - Количество осадков - Количество выпавших осадков за период времени, мм. При наведении курсора мыши на число - период времени, за который выпало указанное количество осадков.
R24 - Количество осадков - Количество выпавших осадков за 24 часа, мм.
S - Снежный покров - Высота снежного покрова, см. При наведении курсора мыши на число - состояние снежного покрова и степень покрытия местности в баллах.